Marion, OH

1:11 PM EDT on June 28, 2017 (GMT -0400)
Marion Municipal

Weather History for KMNN - May, 2014

Change the Weather History Date:

Thursday, May 15, 2014

  Actual Average (KDLZ) Record (KDLZ)
Temperature  
Mean Temperature 54 °F -  
Max Temperature 64 °F 72 °F 94 °F (1962)
Min Temperature 42 °F 49 °F 35 °F (1973)
Degree Days  
Heating Degree Days 12    
Growing Degree Days 4 (Base 50)    
Moisture  
Dew Point 54 °F    
Average Humidity 88    
Maximum Humidity 96    
Minimum Humidity 71    
Precipitation  
Precipitation 0.94 in - - ()
Sea Level Pressure  
Sea Level Pressure 29.86 in    
Wind  
Wind Speed 12 mph (SW)    
Max Wind Speed 23 mph    
Max Gust Speed 29 mph    
Visibility 6 miles    
Events Rain    
Averages and records for this station are not official NWS values.
T = Trace of Precipitation, MM = Missing Value Source: NWS Daily Summary

Daily Weather History Graph

Daily Weather History Graph

Search for Another Location

Airport or City:

Trip Planner

Search our weather history database for the weather conditions in past years. The results will help you decide how hot, cold, wet, or windy it might be!

Date:

Astronomy

May. 15, 2014 Rise Set
Actual Time 6:15 AM EDT 8:42 PM EDT
Civil Twilight 5:44 AM EDT 9:13 PM EDT
Nautical Twilight 5:05 AM EDT 9:52 PM EDT
Astronomical Twilight 4:23 AM EDT 10:35 PM EDT
Moon 9:49 PM EDT (5/15) 7:01 AM EDT (5/15)
Length of Visible Light 15h 29m
Length of Day
14h 26m
Full, 99% of the Moon is Illuminated
May 15
Full
May 21
Last Quarter
May 28
New
Jun 5
First Quarter
Jun 13
Full

Hourly Weather History & Observations

Time (EDT) Temp. Windchill Dew Point Humidity Pressure Visibility Wind Dir Wind Speed Gust Speed Precip Events Conditions
12:25 AM 64.0 °F - 63.0 °F 96% 29.90 in 3.0 mi East 10.4 mph - 0.05 in Rain Light Rain
12:32 AM 64.0 °F - 63.0 °F 96% 29.89 in 3.0 mi East 10.4 mph - 0.08 in Rain Rain
12:36 AM 64.0 °F - 63.0 °F 96% 29.89 in 2.5 mi ESE 9.2 mph - 0.10 in Rain Rain
12:53 AM 64.0 °F - 63.0 °F 96% 29.91 in 2.0 mi South 9.2 mph - 0.18 in Rain Rain
12:59 AM 64.0 °F - 63.0 °F 96% 29.91 in 1.5 mi South 10.4 mph - 0.04 in Rain Heavy Rain
1:06 AM 64.0 °F - 63.0 °F 96% 29.90 in 1.5 mi SSE 6.9 mph - 0.13 in Rain Heavy Rain
1:11 AM 64.0 °F - 63.0 °F 96% 29.89 in 1.8 mi SE 8.1 mph - 0.13 in Rain Light Rain
1:14 AM 64.0 °F - 63.0 °F 96% 29.89 in 3.0 mi SE 8.1 mph - 0.14 in Rain Light Rain
1:53 AM 64.0 °F - 63.0 °F 96% 29.86 in 5.0 mi ESE 9.2 mph - 0.15 in   Overcast
2:53 AM 64.0 °F - 63.0 °F 96% 29.83 in 6.0 mi South 8.1 mph - N/A   Scattered Clouds
3:53 AM 64.0 °F - 62.1 °F 93% 29.80 in 7.0 mi SSE 10.4 mph - 0.00 in Rain Light Rain
4:53 AM 64.0 °F - 61.0 °F 90% 29.79 in 7.0 mi South 11.5 mph - 0.02 in Rain Light Rain
5:53 AM 63.0 °F - 61.0 °F 93% 29.76 in 6.0 mi SSE 12.7 mph - 0.07 in Rain Light Rain
6:23 AM 63.0 °F - 61.0 °F 93% 29.77 in 8.0 mi South 10.4 mph - 0.01 in   Overcast
6:53 AM 63.0 °F - 61.0 °F 93% 29.76 in 6.0 mi South 10.4 mph - 0.02 in Rain Light Rain
7:02 AM 63.0 °F - 61.0 °F 93% 29.76 in 3.0 mi SSE 11.5 mph - 0.02 in Rain Rain
7:23 AM 62.1 °F - 61.0 °F 96% 29.75 in 5.0 mi South 10.4 mph - 0.04 in Rain Light Rain
7:30 AM 62.1 °F - 61.0 °F 96% 29.76 in 2.0 mi SSW 11.5 mph - 0.09 in Rain Rain
7:34 AM 62.1 °F - 61.0 °F 96% 29.75 in 1.2 mi SSW 10.4 mph - 0.15 in Rain Heavy Rain
7:42 AM 62.1 °F - 61.0 °F 96% 29.75 in 2.0 mi South 10.4 mph - 0.17 in Rain Light Rain
7:53 AM 62.1 °F - 61.0 °F 96% 29.75 in 2.5 mi South 11.5 mph - 0.19 in Rain Light Rain
7:55 AM 62.1 °F - 61.0 °F 96% 29.75 in 3.0 mi South 11.5 mph - 0.00 in Rain Light Rain
8:46 AM 64.9 °F - 62.1 °F 90% 29.75 in 6.0 mi South 17.3 mph 27.6 mph 0.00 in   Overcast
8:53 AM 64.9 °F - 62.1 °F 90% 29.74 in 3.0 mi South 19.6 mph - 0.00 in Rain Light Rain
9:00 AM 64.0 °F - 63.0 °F 96% 29.74 in 1.8 mi South 16.1 mph 25.3 mph 0.01 in Rain Light Rain
9:13 AM 64.0 °F - 63.0 °F 96% 29.74 in 1.5 mi South 13.8 mph - 0.04 in Rain Rain
9:19 AM 62.1 °F - 61.0 °F 96% 29.76 in 0.8 mi West 19.6 mph 25.3 mph 0.12 in Rain Heavy Rain
9:25 AM 57.9 °F - 55.9 °F 93% 29.77 in 1.0 mi West 16.1 mph 25.3 mph 0.14 in Rain Rain
9:29 AM 57.9 °F - 55.9 °F 93% 29.77 in 2.0 mi West 17.3 mph 25.3 mph 0.14 in Rain Light Rain
9:37 AM 57.9 °F - 55.9 °F 93% 29.77 in 3.0 mi West 12.7 mph 24.2 mph 0.15 in Rain Light Rain
9:45 AM 57.9 °F - 55.9 °F 93% 29.78 in 1.8 mi WSW 12.7 mph - 0.18 in Rain Rain
9:53 AM 57.0 °F - 55.9 °F 96% 29.78 in 1.2 mi WSW 16.1 mph 23.0 mph 0.24 in Rain Heavy Rain
10:05 AM 57.0 °F - 55.0 °F 93% 29.78 in 2.0 mi WSW 13.8 mph 27.6 mph 0.04 in Rain Rain
10:15 AM 57.0 °F - 55.0 °F 93% 29.79 in 4.0 mi WSW 11.5 mph - 0.05 in Rain Light Rain
10:53 AM 57.0 °F - 55.0 °F 93% 29.81 in 8.0 mi West 10.4 mph - 0.06 in   Overcast
11:53 AM 55.0 °F - 51.1 °F 86% 29.83 in 8.0 mi WSW 15.0 mph - 0.01 in   Overcast
12:53 PM 54.0 °F - 48.9 °F 83% 29.86 in 10.0 mi WSW 17.3 mph 23.0 mph N/A   Overcast
1:26 PM 53.1 °F - 48.0 °F 83% 29.88 in 10.0 mi WSW 23.0 mph 28.8 mph N/A   Overcast
1:43 PM 54.0 °F - 48.0 °F 80% 29.88 in 10.0 mi WSW 18.4 mph 27.6 mph N/A   Overcast
1:53 PM 54.0 °F - 46.9 °F 77% 29.89 in 10.0 mi SW 17.3 mph 26.5 mph N/A   Overcast
3:53 PM 53.1 °F - 45.0 °F 74% 29.91 in 10.0 mi SW 17.3 mph - N/A   Overcast
4:53 PM 52.0 °F - 45.0 °F 77% 29.94 in 9.0 mi WSW 15.0 mph - N/A   Overcast
5:14 PM 52.0 °F - 46.0 °F 80% 29.94 in 10.0 mi SSW 15.0 mph - 0.00 in   Overcast
5:53 PM 53.1 °F - 45.0 °F 74% 29.94 in 10.0 mi WSW 10.4 mph 19.6 mph 0.00 in   Overcast
6:12 PM 53.1 °F - 44.1 °F 71% 29.94 in 10.0 mi WSW 16.1 mph - N/A   Overcast
6:53 PM 51.1 °F - 42.1 °F 71% 29.96 in 10.0 mi West 16.1 mph 25.3 mph N/A   Overcast
7:53 PM 48.9 °F - 42.1 °F 77% 30.00 in 10.0 mi West 16.1 mph - N/A   Overcast
8:04 PM 48.0 °F - 42.1 °F 80% 30.00 in 10.0 mi West 16.1 mph - N/A   Overcast
8:20 PM 46.9 °F - 42.1 °F 83% 30.01 in 10.0 mi West 12.7 mph 25.3 mph N/A   Overcast
8:37 PM 46.0 °F 39.9 °F 42.1 °F 86% 30.02 in 7.0 mi West 13.8 mph 23.0 mph N/A   Overcast
8:53 PM 46.0 °F 40.6 °F 41.0 °F 83% 30.02 in 7.0 mi West 11.5 mph 20.7 mph N/A   Overcast
9:33 PM 46.0 °F 39.0 °F 37.9 °F 73% 30.03 in 10.0 mi WNW 17.3 mph - N/A   Overcast
9:44 PM 46.0 °F 40.6 °F 37.9 °F 73% 30.03 in 10.0 mi WNW 11.5 mph - N/A   Overcast
9:53 PM 45.0 °F 38.5 °F 37.9 °F 76% 30.04 in 10.0 mi WNW 13.8 mph - N/A   Overcast
10:53 PM 44.1 °F 36.8 °F 35.1 °F 71% 30.05 in 10.0 mi WNW 16.1 mph 23.0 mph N/A   Overcast
11:38 PM 43.0 °F 39.5 °F 35.1 °F 74% 30.04 in 10.0 mi WNW 5.8 mph - N/A   Scattered Clouds
11:53 PM 42.1 °F 39.2 °F 36.0 °F 79% 30.05 in 10.0 mi WNW 4.6 mph - N/A   Scattered Clouds